VE1UHF-4 Weather Reports


time (UTC)temp
F
wind
direction
speed
knots
gust
knots
rain 1hr
in
rain 24hr
in
rain mn
in
humidity
%
barometer
mb
20260507173545 60 270 0.0 0.0 0.00 0.00 0.00 86 996.0
20260507172045 60 270 0.0 0.0 0.00 0.00 0.00 86 995.7
20260507170544 60 270 0.0 0.0 0.00 0.00 0.00 86 995.7
20260507165044 60 270 0.0 0.0 0.00 0.00 0.00 86 996.0
20260507163543 60 270 0.0 0.0 0.00 0.00 0.00 86 994.8
20260507162043 60 270 0.0 0.0 0.00 0.00 0.00 85 996.6
20260507160542 60 270 0.0 0.0 0.00 0.00 0.00 85 996.3
20260507155042 60 270 0.0 0.0 0.00 0.00 0.00 85 996.1
20260507153541 61 270 0.0 0.0 0.00 0.00 0.00 84 996.7
20260507152040 61 270 0.0 0.0 0.00 0.00 0.00 84 997.2
20260507150540 61 270 0.0 0.0 0.00 0.00 0.00 84 997.4
20260507145039 61 270 0.0 0.0 0.00 0.00 0.00 85 997.4
20260507143539 61 270 0.0 0.0 0.00 0.00 0.00 85 997.3
20260507142038 61 270 0.0 0.0 0.00 0.00 0.00 85 997.3
20260507140538 61 270 0.0 0.0 0.00 0.00 0.00 85 997.2
20260507135038 61 270 0.0 0.0 0.00 0.00 0.00 85 997.2
20260507133537 61 270 0.0 0.0 0.00 0.00 0.00 85 997.3
20260507132037 61 270 0.0 0.0 0.00 0.00 0.00 85 997.3
20260507130535 61 270 0.0 0.0 0.00 0.00 0.00 85 997.4
20260507125036 61 270 0.0 0.0 0.00 0.00 0.00 86 997.2
20260507123534 61 270 0.0 0.0 0.00 0.00 0.00 85 997.3
20260507122034 61 270 0.0 0.0 0.00 0.00 0.00 86 997.2
20260507120535 61 270 0.0 0.0 0.00 0.00 0.00 85 997.6
20260507115033 61 270 0.0 0.0 0.00 0.00 0.00 86 997.0
20260507113532 61 270 0.0 0.0 0.00 0.00 0.00 85 997.3
20260507112032 61 270 0.0 0.0 0.00 0.00 0.00 85 997.5
20260507110531 61 270 0.0 0.0 0.00 0.00 0.00 85 997.4
20260507105031 61 270 0.0 0.0 0.00 0.00 0.00 85 997.6
20260507103530 60 270 0.0 0.0 0.00 0.00 0.00 84 997.6
20260507102031 60 270 0.0 0.0 0.00 0.00 0.00 83 997.7
20260507100529 60 270 0.0 0.0 0.00 0.00 0.00 83 997.5
20260507095028 60 270 0.0 0.0 0.00 0.00 0.00 83 997.6
20260507093528 60 270 0.0 0.0 0.00 0.00 0.00 82 998.0
20260507092027 60 270 0.0 0.0 0.00 0.00 0.00 82 998.3
20260507090527 60 270 0.0 0.0 0.00 0.00 0.00 81 998.5
20260507085026 61 270 0.0 0.0 0.00 0.00 0.00 81 998.5
20260507083526 61 270 0.0 0.0 0.00 0.00 0.00 81 998.8
20260507082025 61 270 0.0 0.0 0.00 0.00 0.00 80 999.1
20260507080525 61 270 0.0 0.0 0.00 0.00 0.00 80 999.6
20260507075024 61 270 0.0 0.0 0.00 0.00 0.00 80 999.6
20260507073524 62 270 0.0 0.0 0.00 0.00 0.00 80 999.9
20260507072023 62 270 0.0 0.0 0.00 0.00 0.00 80 1000.6
20260507070522 62 270 0.0 0.0 0.00 0.00 0.00 79 1000.6
20260507065022 62 270 0.0 0.0 0.00 0.00 0.00 79 1001.2
20260507063521 63 270 0.0 0.0 0.00 0.00 0.00 78 1001.1
20260507062021 63 270 0.0 0.0 0.00 0.00 0.00 78 1002.0
20260507055020 63 270 0.0 0.0 0.00 0.00 0.00 78 1002.4
20260507053519 63 270 0.0 0.0 0.00 0.00 0.00 78 1002.8
20260507052019 64 270 0.0 0.0 0.00 0.00 0.00 78 1003.1
20260507050518 64 270 0.0 0.0 0.00 0.00 0.00 78 1002.6
20260507045018 64 270 0.0 0.0 0.00 0.00 0.00 78 1003.5
20260507043517 64 270 0.0 0.0 0.00 0.00 0.00 77 1003.7
20260507042017 64 270 0.0 0.0 0.00 0.00 0.00 77 1004.1
20260507040518 65 270 0.0 0.0 0.00 0.00 0.00 77 1004.4
20260507035015 65 270 0.0 0.0 0.00 0.00 0.00 77 1004.4
20260507033515 65 270 0.0 0.0 0.00 0.00 0.00 77 1004.8
20260507032014 65 270 0.0 0.0 0.00 0.00 0.00 77 1005.0
20260507030514 66 270 0.0 0.0 0.00 0.00 0.00 77 1005.4
20260507025013 66 270 0.0 0.0 0.00 0.00 0.00 77 1005.6
20260507023513 66 270 0.0 0.0 0.00 0.00 0.00 77 1006.2
20260507022012 67 270 0.0 0.0 0.00 0.00 0.00 77 1006.2
20260507020514 67 270 0.0 0.0 0.00 0.00 0.00 76 1006.4
20260507015011 67 270 0.0 0.0 0.00 0.00 0.00 75 1006.6
20260507013511 67 270 0.0 0.0 0.00 0.00 0.00 75 1006.9
20260507012010 68 270 0.0 0.0 0.00 0.00 0.00 74 1007.0
20260507010510 69 270 0.0 0.0 0.00 0.00 0.00 73 1007.1
20260507005009 69 270 0.0 0.0 0.00 0.00 0.00 73 1007.4
20260507002009 71 270 0.0 0.0 0.00 0.00 0.00 71 1007.2
20260507000507 72 270 0.0 0.0 0.00 0.00 0.00 71 1007.3
20260506235007 73 270 0.0 0.0 0.00 0.00 0.00 71 1007.1
20260506232002 71 270 0.0 0.0 0.00 0.00 0.00 75 1006.5
20260506230501 71 270 0.0 0.0 0.00 0.00 0.00 74 1006.6
20260506225001 71 270 0.0 0.0 0.00 0.00 0.00 74 1006.6
20260506223500 71 270 0.0 0.0 0.00 0.00 0.00 75 1006.8
20260506222000 72 270 0.0 0.0 0.00 0.00 0.00 76 1006.6
20260506220459 72 270 0.0 0.0 0.00 0.00 0.00 75 1006.8
20260506214959 72 270 0.0 0.0 0.00 0.00 0.00 77 1006.7
20260506213458 72 270 0.0 0.0 0.00 0.00 0.00 78 1006.5
20260506211957 73 270 0.0 0.0 0.00 0.00 0.00 78 1006.1
20260506210457 73 270 0.0 0.0 0.00 0.00 0.00 78 1005.9
20260506204956 73 270 0.0 0.0 0.00 0.00 0.00 79 1006.0
20260506203456 73 270 0.0 0.0 0.00 0.00 0.00 79 1005.8
20260506201955 73 270 0.0 0.0 0.00 0.00 0.00 80 1005.8
20260506200455 73 270 0.0 0.0 0.00 0.00 0.00 80 1005.9
20260506194954 73 270 0.0 0.0 0.00 0.00 0.00 80 1006.1
20260506193454 74 270 0.0 0.0 0.00 0.00 0.00 80 1006.2
20260506191953 74 270 0.0 0.0 0.00 0.00 0.00 80 1006.3
20260506190453 74 270 0.0 0.0 0.00 0.00 0.00 79 1006.5
20260506184952 74 270 0.0 0.0 0.00 0.00 0.00 80 1006.8
20260506183452 74 270 0.0 0.0 0.00 0.00 0.00 81 1006.7
20260506181951 75 270 0.0 0.0 0.00 0.00 0.00 82 1006.9
20260506180450 75 270 0.0 0.0 0.00 0.00 0.00 84 1007.1
20260506174950 74 270 0.0 0.0 0.00 0.00 0.00 85 1007.0